Holloman Air Force Base
KHMN : now visible

Airfield :











YOU CAN JOIN US ON...

 
LOGIN :

Register | Disclaimer

   EN    FR    IT 

 









Legend :    VFR   Marginal VFR   IFR   Intensive IFR   Very Intensive IFR
Visi :
Ceiling :
>= 8 km
>= 3000ft
5 to 8 km
1000 to 3000 ft
1500m to 5 km
500 to 1000 ft
800 to 1500m
200 to 500 ft
< 800m
< 200 ft
Symbols :   Thunderstorms  Fog  Heavy snow  Heavy precipitations  Wind > 20 kt






- Airport Elevation : 4093 ft


KHMN - Holloman Air Force Base

CURRENT METAR :
  • 212258Z AUTO 00000KT 10SM CLR 27/M00 A3019 RMK AO2 SLP175 T02701001 $

EXPIRED METARs :
  • 212158Z AUTO 36003KT 10SM CLR 27/00 A3020 RMK AO2 SLP176 T02730001 $
  • 212058Z AUTO 34005KT 10SM CLR 27/M00 A3021 RMK AO2 SLP179 T02691002 $

TAF TAF KHMN
Valid from the 21 at 17:00 until the 22 at 23:00 UTC


211700Z 2117/2223 VRB06KT 9999 FEW250 QNH3020INS TX27/2122Z TN07/2213Z
KZAB FIR / North America



MET'MAP, your aeronautical weather chart ! - Copyright ORBIFLY December 2007 - Disclaimer

ORBIFLY MET'MAP TEAM :

Programming & Development : Alexandra Zaïnal
Concept & original design : Baudouin d'Aumeries
Assistance for programming : Marc-Olivier Méhu
Technical & hardware support : Manuel Goepfert

Contact : metmap@orbifly.com




SOURCES & CREDITS :

   NOAA       Earth
Advisory